Showing default

ICEYE-X38, 59100

Orbit data source: Space-Track

ICEYE-X38, 59100 is a payload satellite owned by ICEYE (FI) in SSO that was launched on Mon, 04 Mar 2024 UTC via an FALCON 9 launch vehicle from the Air Force Western Test Range (AFWTR). Payload-class satellites include a variety of spacecraft equipped with specific instruments for various scientific and technological missions. These include communications satellites like Starlink; space stations such as the ISS; scientific satellites like the Hubble; Earth observation satellites from companies like Planet Labs, Umbra, and HawkEye 360; GPS; miniature CubeSats for education and research; and military/defense satellites.

Loading next visibility...
Identifier
59100, 2024-043C
Orbit
SSO
Country
Flag of FIFI / FIN
Related business
Manufacturer
ICEYE
Mission
Operational Commercial Radar Imaging
Bus & Motor
ICEYE, Unknown motor
Mass
90 kg wet, 89 kg dry
Launch date (UTC)
2024-03-04 (3 years ago)
Launch vehicle
FALCON 9
Launch site
Air Force Western Test Range (AFWTR)
Object type
Payload
Rocket body
Debris
Shape & HBR
Box + 1 Pan, 2.4 m
Radar Cross Section
0.825 m², Medium (>0.1 m² and < 1m²)

Expand to show TLE details & history
Last TLE update: 6 hours ago

TLE from 6 hours ago
0 ICEYE-X38
1 59100U 24043C   26248.33037277  .00002439  00000-0  14030-3 0  9991
2 59100  97.8509  34.3706 0003207 143.7684 216.3764 15.13470886123797
Epoch: 2026-09-05T07:55Z
TLE epoch observation values (Epoch: 2026-09-05T07:55:44.207Z)
Latitude
-0.00001°
Longitude
-69.00498°
Altitude
530.476 km
Speed
7.597 km/s
True Right ascension
02h 17m 28s
True Declination
0° 00' 00"
Sunlit
Object was in full shadow at epoch
Visualization orbit readout
Latitude
Unknown
Longitude
Unknown
Altitude
Unknown
Speed
Unknown
Apparent Right ascension
Unknown
Apparent Declination
Unknown
Sunlit
N/A
Visualization observer readout
Local Sidereal Time
06:05:39
Azimuth
Unknown
Elevation
Unknown
Doppler factor
Unknown
Orbital elements
Apogee altitude
524.832 km
Perigee altitude
520.406 km
Semi-major axis
6,900.756 km
Eccentricity
0.00032
Inclination
97.8509°
RAAN
34.3706°
Arg. of periapsis
143.7684°
True anomaly
216.35461°
Mean anomaly
216.3764°
Eccentric anomaly
216.3655°
Mean motion
3.78615 °/min
Orbital period
95.08 mins
BSTAR
0.0001403
Loading maneuver chart data...
Computing Atmospheric mass density...
Loading historical data...
Loading historical data...
Loading historical data...
Loading historical data...
Loading historical data...
Loading historical data...
Loading historical data...

Documentation

Showing up to 5 results
|